Location: Llanfihangel-Ystrad
(52.1833°N, 4.1667°W)
Time: 15:31:19
(UTC+00:00)

SL-16 R/B - Pass Details

Date: 17 February 2020
Orbit: 842 x 846 km, 71.0° (Epoch: 07 April)

Event Time Altitude Azimuth Distance (km) Brightness Sun altitude
Exits shadow 04:54:19 12° 333° (NNW) 2,304 4.3 -24.3°
Maximum altitude 04:55:23 13° 345° (NNW) 2,265 4.4 -24.1°
Drops below altitude 10° 04:57:58 10° 12° (NNE) 2,478 4.9 -23.7°
Sets 05:01:59 0° 40° (NE) 3,415 6.1 -23.1°
